Volver al catálogo

CZ-6A DEB

ActivoPO
NORAD 54354·DEBRIS·🇨🇳 China

Lanzado Nov 11, 2022 desde Taiyuan Satellite Launch Center

Loading…

Próximos Pases (próximas 24 horas)

TLE

ActualizadoSource: Space-Track

Época: Sep 14, 2026, 11:47 UTC

1 54354U 22151CZ  26257.49115781  .00009366  00000-0  11426-2 0  9990
2 54354  98.7152 354.4053 0094129   0.9086 359.2277 14.80445782203527

Sigue CZ-6A DEB en tiempo real con AllMySat

Download on the App Store